QPF
0.00 0.00 0.00 0.00 0.00 0.00 0.01 0.05 0.10 0.09 0.07 0.09 0.18 0.17 0.13 0.07 0.03 0.06 0.01 0.02 0.16 0.12
0.00 0.00 0.00 0.00 0.00 0.00 0.01 0.01 0.06 0.08 0.08 0.06 0.09 0.16 0.14 0.18 0.22 0.18 0.11 0.02 0.03 0.04
0.00 0.00 0.00 0.00 0.00 0.00 0.02 0.02 0.01 0.01 0.01 0.00 0.00 0.03 0.06 0.10 0.10 0.11 0.13 0.12 0.08 0.02
0.01 0.01 0.01 0.00 0.00 0.00 0.00 0.02 0.04 0.02 0.01 0.04 0.05 0.07 0.06 0.04 0.02 0.03 0.07 0.05 0.07 0.05
0.01 0.03 0.03 0.03 0.04 0.05 0.03 0.02 0.01 0.01 0.05 0.02 0.00 0.01 0.01 0.00 0.01 0.02 0.05 0.08 0.10 0.01
0.01 0.00 0.00 0.00 0.01 0.07 0.11 0.16 0.20 0.13 0.03 0.01 0.01 0.00 0.00 0.00 0.02 0.05 0.06 0.03 0.03 0.04
0.00 0.00 0.00 0.00 0.00 0.00 0.00 0.02 0.10 0.25 0.30 0.12 0.09 0.06 0.02 0.02 0.09 0.02 0.00 0.00 0.01 0.00
0.00 0.00 0.00 0.00 0.00 0.00 0.00 0.00 0.00 0.00 0.00 0.02 0.03 0.01 0.01 0.05 0.06 0.07 0.02 0.00 0.01 0.00
0.00 0.00 0.00 0.00 0.00 0.00 0.00 0.00 0.00 0.00 0.00 0.00 0.00 0.00 0.00 0.01 0.07 0.11 0.05 0.02 0.00 0.00
0.00 0.00 0.00 0.00 0.00 0.00 0.00 0.00 0.00 0.00 0.00 0.00 0.00 0.00 0.00 0.00 0.01 0.01 0.00 0.00 0.00 0.00
0.00 0.00 0.00 0.00 0.00 0.00 0.00 0.00 0.00 0.00 0.00 0.00 0.00 0.00 0.00 0.00 0.00 0.00 0.00 0.00 0.00 0.00
0.00 0.00 0.00 0.00 0.00 0.00 0.00 0.00 0.00 0.00 0.00 0.00 0.00 0.00 0.00 0.00 0.00 0.00 0.00 0.00 0.00 0.00
0.00 0.00 0.00 0.00 0.00 0.00 0.00 0.00 0.00 0.00 0.00 0.00 0.00 0.00 0.00 0.00 0.00 0.00 0.00 0.00 0.00 0.00
0.00 0.00 0.00 0.00 0.00 0.00 0.00 0.00 0.00 0.00 0.00 0.00 0.00 0.00 0.00 0.00 0.00 0.00 0.00 0.00 0.00 0.00
MSLP
1013.19 1013.32 1013.13 1012.83 1012.46 1011.85 1011.14 1010.51 1010.55 1010.52 1010.99 1011.61 1012.23 1012.25 1012.72 1012.92 1012.78 1012.54 1012.66 1012.68 1012.75 1012.87
1013.20 1013.32 1013.19 1012.78 1012.50 1012.13 1011.71 1011.32 1010.96 1011.03 1011.29 1011.46 1011.64 1011.73 1012.48 1012.51 1012.49 1012.27 1012.05 1011.99 1012.05 1012.25
1013.01 1013.15 1013.06 1012.89 1012.77 1012.35 1012.02 1011.49 1011.30 1011.24 1011.26 1011.47 1011.43 1011.95 1012.30 1012.24 1011.79 1011.61 1011.50 1011.57 1011.60 1011.66
1013.16 1013.17 1013.05 1012.96 1012.80 1012.50 1012.21 1011.86 1011.68 1011.34 1011.20 1011.34 1011.66 1011.93 1011.81 1011.33 1011.11 1010.93 1010.82 1010.85 1010.79 1010.92
1012.94 1012.95 1012.91 1012.84 1012.70 1012.67 1012.28 1011.89 1011.63 1011.58 1011.40 1011.17 1011.26 1011.60 1011.66 1011.13 1010.76 1010.40 1010.13 1010.19 1010.25 1010.31
1013.03 1012.90 1012.69 1012.59 1012.50 1012.42 1012.24 1011.91 1011.57 1011.23 1011.21 1011.09 1010.91 1010.82 1010.62 1010.53 1010.21 1009.87 1009.74 1009.98 1010.07 1009.81
1012.86 1012.78 1012.58 1012.35 1012.26 1012.21 1012.09 1012.00 1011.65 1011.42 1011.08 1010.75 1010.38 1010.25 1010.28 1010.35 1010.08 1009.73 1009.41 1009.20 1009.46 1009.58
1012.70 1012.69 1012.71 1012.49 1012.27 1012.11 1012.05 1011.97 1011.89 1011.60 1011.17 1010.74 1010.24 1010.03 1009.99 1009.95 1009.65 1009.58 1009.35 1008.99 1009.22 1009.21
1012.73 1012.85 1012.92 1012.84 1012.65 1012.26 1011.93 1011.86 1011.83 1011.65 1011.45 1011.04 1010.54 1010.13 1009.92 1009.78 1009.61 1009.40 1009.30 1009.12 1008.92 1008.78
1012.65 1012.95 1013.02 1012.98 1012.93 1012.61 1012.40 1012.03 1011.81 1011.65 1011.42 1011.05 1010.57 1010.15 1009.92 1009.63 1009.43 1009.23 1009.08 1008.96 1008.80 1008.70
1012.43 1012.64 1012.70 1012.69 1012.78 1012.58 1012.21 1012.07 1011.68 1011.34 1011.08 1010.90 1010.41 1009.92 1009.67 1009.32 1009.05 1009.06 1008.87 1008.78 1008.62 1008.54
1012.21 1012.31 1012.45 1012.46 1012.49 1012.33 1012.04 1011.82 1011.49 1011.02 1010.82 1010.71 1010.30 1009.82 1009.48 1009.03 1008.94 1008.78 1008.50 1008.26 1008.16 1008.21
1012.34 1012.39 1012.37 1012.30 1012.29 1012.04 1011.78 1011.64 1011.29 1010.89 1010.51 1010.22 1010.01 1009.50 1009.15 1008.88 1008.76 1008.48 1008.05 1007.82 1007.65 1007.56
1012.38 1012.49 1012.31 1012.32 1012.15 1011.94 1011.70 1011.44 1011.13 1010.80 1010.42 1010.05 1009.75 1009.27 1008.70 1008.44 1008.53 1008.16 1007.84 1007.52 1007.17 1007.17
Thickness
5764 5760 5759 5759 5758 5758 5757 5758 5756 5759 5758 5755 5751 5756 5756 5759 5761 5763 5765 5766 5765 5766
5761 5757 5755 5756 5754 5752 5749 5749 5751 5752 5751 5751 5751 5753 5750 5752 5754 5759 5763 5766 5767 5767
5761 5756 5755 5752 5748 5748 5745 5747 5747 5749 5748 5747 5747 5743 5744 5747 5753 5756 5761 5764 5765 5765
5758 5755 5752 5749 5746 5744 5744 5743 5743 5745 5746 5744 5739 5738 5741 5747 5752 5757 5760 5763 5765 5765
5759 5755 5751 5749 5745 5742 5741 5742 5741 5739 5739 5741 5738 5735 5734 5742 5748 5754 5759 5761 5762 5762
5755 5754 5752 5749 5745 5742 5740 5741 5742 5741 5739 5739 5739 5739 5742 5743 5748 5753 5757 5757 5757 5760
5754 5752 5752 5751 5748 5744 5741 5738 5739 5740 5741 5742 5744 5742 5743 5742 5746 5750 5754 5756 5756 5755
5752 5749 5747 5748 5747 5745 5740 5736 5734 5734 5738 5743 5746 5747 5745 5743 5744 5746 5748 5752 5751 5752
5746 5743 5740 5739 5739 5741 5741 5737 5733 5731 5731 5734 5739 5743 5744 5744 5743 5743 5742 5743 5746 5748
5741 5735 5734 5732 5731 5733 5733 5734 5732 5730 5728 5729 5733 5738 5739 5742 5743 5743 5743 5743 5744 5744
5739 5732 5728 5726 5724 5726 5728 5728 5729 5729 5728 5726 5729 5732 5734 5738 5741 5739 5739 5739 5739 5740
5735 5731 5727 5723 5719 5718 5721 5721 5723 5725 5724 5723 5723 5727 5729 5732 5732 5732 5734 5736 5736 5735
5726 5722 5719 5717 5714 5713 5713 5713 5715 5717 5718 5719 5720 5722 5724 5725 5725 5726 5729 5732 5733 5734
5715 5709 5707 5704 5703 5703 5704 5705 5705 5708 5709 5711 5713 5716 5719 5720 5720 5722 5723 5726 5729 5730